Regional Weather Roundup
Issued by NWS

Home | Current Version | Previous Version | Text Only | Print | Product List | Glossary On
Versions: 1 2 3 4 5 6 7 8 9 10 11 12 13 14 15 16 17 18 19 20 21 22 23 24 25 26 27 28 29 30 31 32 33 34 35 36 37 38 39 40 41 42 43 44 45 46 47 48 49 50
026
ASUS44 KLIX 271811
RWRLA
LOUISIANA WEATHER ROUNDUP
NATIONAL WEATHER SERVICE NEW ORLEANS LA
100 PM CDT FRI MAR 27 2015

NOTE: "FAIR" INDICATES FEW OR NO CLOUDS BELOW 12,000 FEET WITH NO
      SIGNIFICANT WEATHER AND/OR OBSTRUCTIONS TO VISIBILITY.
      SKY/WX - SKY CONDITION AND SIGNIFICANT WEATHER.
      TMP - AIR TEMPERATURE.    DP   - DEWPOINT TEMPERATURE.
      RH  - RELATIVE HUMIDITY.  PRES - PRESSURE.
      HX  - HEAT INDEX.         WCI  - WIND CHILL INDEX.

*  THESE STATIONS ARE NOT NWS OR FAA STATIONS AND ARE NOT UNDER
   NWS QUALITY CONTROL.

LAZ040-048-061>063-065-066-069-271900-
SOUTHEAST LOUISIANA

CITY           SKY/WX    TMP DP  RH WIND       PRES   REMARKS
N.O. AUDUBON     N/A    N/A N/A N/A MISG        N/A
6HR MIN TEMP:  52; 6HR MAX TEMP:  65;

N.O. INTL ARPT MOSUNNY   63  34  33 NW14      30.07F
6HR MIN TEMP:  51; 6HR MAX TEMP:  63;

N.O. LAKEFRONT SUNNY     65  33  30 NW13      30.07F
6HR MIN TEMP:  54; 6HR MAX TEMP:  65;

SLIDELL        SUNNY     65  33  30 N12G17    30.04F
6HR MIN TEMP:  51; 6HR MAX TEMP:  65;

BATON ROUGE    SUNNY     66  36  32 W9        30.08F
6HR MIN TEMP:  45; 6HR MAX TEMP:  66;

BOOTHVILLE     SUNNY     62  44  51 NW16G23   30.06F
6HR MIN TEMP:  55; 6HR MAX TEMP:  62;

BELLE CHASSE   MOSUNNY   63  32  31 NW9G17    30.05F
6HR MIN TEMP:  53; 6HR MAX TEMP:  63;

BOGALUSA*        N/A     65  31  28 NW13G20   30.07F
6HR MIN TEMP:  47; 6HR MAX TEMP:  65;

GALLIANO*      CLEAR     66  31  27 MISG      30.07F
6HR MIN TEMP:  54; 6HR MAX TEMP:  66;

NEW ROADS*     FAIR      60  37  43 N3        30.10F
6HR MIN TEMP:  45; 6HR MAX TEMP:  60;

GONZALES*      FAIR      65  34  31 NW10G20   30.07F
6HR MIN TEMP:  47; 6HR MAX TEMP:  65;

HAMMOND*       SUNNY     66  28  24 N14       30.07F
HOUMA*         SUNNY     64  36  34 NW14      30.08F
PORT FOURCHON* CLEAR     63  39  42 N12       30.10F

$$

LAZ041-044-053-054-271900-
SOUTHWEST LOUISIANA

CITY           SKY/WX    TMP DP  RH WIND       PRES   REMARKS
LAKE CHARLES   SUNNY     68  41  37 N7        30.12F
6HR MIN TEMP:  44; 6HR MAX TEMP:  68;

LAFAYETTE      SUNNY     65  39  38 NW9       30.11F
6HR MIN TEMP:  46; 6HR MAX TEMP:  65;

PATTERSON      SUNNY     63  37  39 NW13      30.10F
6HR MIN TEMP:  48; 6HR MAX TEMP:  63;

SALT POINT       N/A     65  42  43 W7        30.09F
6HR MIN TEMP:  49; 6HR MAX TEMP:  65; 6HR PCP:  0.08;

NEW IBERIA     SUNNY     67  40  37 N9G20     30.11F
6HR MIN TEMP:  46; 6HR MAX TEMP:  67;

CHENAULT AIRPK SUNNY     64  43  45 W9        30.13F

$$

LAZ027-028-271900-
CENTRAL LOUISIANA

CITY           SKY/WX    TMP DP  RH WIND       PRES   REMARKS
FORT POLK      SUNNY     67  36  32 W13       30.10F
6HR MIN TEMP:  42; 6HR MAX TEMP:  67;

ALEXANDRIA INT SUNNY     65  43  44 MISG      30.09F
6HR MIN TEMP:  41; 6HR MAX TEMP:  65;

ALEXANDRIA     SUNNY     66  38  35 VRB7G22   30.10F
6HR MIN TEMP:  38; 6HR MAX TEMP:  66;


$$

LAZ001-002-271900-
NORTHWEST LOUISIANA

CITY           SKY/WX    TMP DP  RH WIND       PRES   REMARKS
SHREVEPORT     CLOUDY    67  36  31 W20       30.10S
6HR MIN TEMP:  40; 6HR MAX TEMP:  68;

BARKSDALE AFB  CLOUDY    67  35  30 NW16G24   30.10S
6HR MIN TEMP:  41; 6HR MAX TEMP:  67;

DTN SHREVEPORT CLOUDY    65  36  34 NW14G24   30.10S
6HR MIN TEMP:  38; 6HR MAX TEMP:  65;


$$

LAZ014-016-271900-
NORTHEAST LOUISIANA

CITY           SKY/WX    TMP DP  RH WIND       PRES   REMARKS
MONROE         PTSUNNY   62  42  47 SW7       30.08F
6HR MIN TEMP:  40; 6HR MAX TEMP:  62;

TALLULAH       SUNNY     57  38  48 N8        30.10F
6HR MIN TEMP:  40; 6HR MAX TEMP:  58;


$$




USA.gov is the U.S. government's official web portal to all federal, state and local government web resources and services.